Terminal Aerodrome Forecast
Issued by NWS Houston/Galveston, TX

Home | Current Version | Previous Version | Text Only | Print | Product List | Glossary On
Versions: 1 2 3 4 5 6 7 8 9 10 11 12 13 14 15 16 17 18 19 20 21 22 23 24 25 26 27 28 29 30 31 32 33 34 35 36 37 38
000
FTUS44 KHGX 030531
TAFCLL
TAF
KCLL 030531Z 0306/0406 16007KT P6SM SCT020
     FM031000 14003KT P6SM FEW008 BKN015
     FM031400 15010KT P6SM SCT035
     FM040400 16006KT P6SM FEW250=

USA.gov is the U.S. government's official web portal to all federal, state and local government web resources and services.